DW0226 Weather Reports


time (UTC)temp
F
wind
direction
speed
knots
gust
knots
rain 1hr
in
rain 24hr
in
rain mn
in
humidity
%
barometer
mb
20260507081035 58 331 0.0 0.0 0.00 0.08 0.08 89 1008.8
20260507080023 59 284 0.0 2.6 0.00 0.08 0.08 89 1008.7
20260507075033 59 41 0.0 1.7 0.00 0.08 0.08 89 1008.5
20260507074023 59 355 0.0 7.8 0.00 0.08 0.08 89 1008.6
20260507073055 59 323 1.7 7.0 0.00 0.08 0.08 90 1009.1
20260507072020 60 312 0.0 6.1 0.00 0.08 0.08 90 1008.9
20260507071028 60 314 0.0 7.8 0.00 0.08 0.08 90 1008.8
20260507070059 60 311 0.0 5.2 0.00 0.08 0.08 91 1008.6
20260507065028 61 305 2.6 5.2 0.00 0.08 0.08 91 1008.3
20260507064016 61 63 0.0 3.5 0.00 0.08 0.08 91 1007.4
20260507063029 61 315 1.7 5.2 0.00 0.08 0.08 91 1007.3
20260507062036 62 47 0.0 1.7 0.00 0.08 0.08 91 1007.0
20260507061027 62 313 0.0 1.7 0.00 0.08 0.08 91 1007.5
20260507060035 62 26 0.0 1.7 0.00 0.08 0.08 91 1007.5
20260507055043 63 302 0.0 0.9 0.00 0.08 0.08 91 1008.0
20260507054028 63 62 0.0 2.6 0.00 0.08 0.08 91 1007.7
20260507053023 64 331 0.0 4.3 0.00 0.08 0.08 93 1008.0
20260507052029 64 284 0.0 3.5 0.00 0.08 0.08 94 1008.0
20260507051037 63 278 0.0 1.7 0.00 0.08 0.08 94 1008.1
20260507050025 63 159 0.0 0.0 0.00 0.08 0.08 94 1007.9
20260507045019 63 159 0.0 0.0 0.00 0.08 0.08 94 1007.8
20260507044047 62 159 0.0 0.0 0.00 0.08 0.08 93 1007.8
20260507043034 62 159 0.0 0.0 0.00 0.08 0.08 93 1008.1
20260507042021 62 159 0.0 0.0 0.00 0.08 0.08 93 1008.0
20260507041034 62 159 0.0 0.0 0.00 0.08 0.08 93 1007.7
20260507040024 63 159 0.0 0.0 0.00 0.08 0.08 93 1007.8
20260507035033 63 159 0.0 0.0 0.00 0.08 0.08 93 1007.9
20260507034024 62 159 0.0 0.0 0.00 0.08 0.08 93 1007.9
20260507033032 62 159 0.0 0.0 0.00 0.08 0.08 93 1008.3
20260507032022 62 159 0.0 0.0 0.00 0.08 0.08 92 1007.8
20260507031029 62 159 0.0 0.0 0.00 0.08 0.08 92 1007.4
20260507030023 63 159 0.0 0.0 0.00 0.08 0.08 92 1007.2
20260507025029 63 159 0.0 0.0 0.00 0.08 0.08 92 1006.9
20260507024038 63 159 0.0 0.0 0.00 0.08 0.08 92 1007.1
20260507023027 63 159 0.0 0.0 0.00 0.08 0.08 92 1007.2
20260507022017 63 159 0.0 0.0 0.00 0.08 0.08 91 1007.5
20260507021027 63 159 0.0 0.0 0.00 0.08 0.08 91 1007.8
20260507020038 63 159 0.0 0.0 0.00 0.08 0.08 90 1008.0
20260507015021 63 159 0.0 0.0 0.00 0.08 0.08 90 1007.7
20260507014033 63 159 0.0 0.0 0.00 0.08 0.08 89 1007.8
20260507013021 64 159 0.0 0.0 0.00 0.08 0.08 89 1007.6
20260507012027 64 159 0.0 0.0 0.00 0.08 0.08 88 1007.4
20260507010028 65 159 0.0 0.0 0.00 0.08 0.08 87 1007.6
20260507005055 66 159 0.0 0.0 0.00 0.08 0.08 84 1007.6
20260507004020 67 159 0.0 0.0 0.00 0.08 0.08 84 1007.5
20260507003050 68 159 0.0 0.0 0.00 0.08 0.08 82 1007.5
20260507002019 68 159 0.0 0.0 0.00 0.08 0.08 82 1007.5
20260507001027 69 159 0.0 0.9 0.00 0.08 0.08 81 1007.5
20260507000034 69 237 0.9 2.6 0.00 0.08 0.08 81 1007.2
20260506235020 70 240 0.0 0.9 0.00 0.08 0.08 80 1006.9
20260506234051 70 240 0.9 1.7 0.00 0.08 0.08 80 1007.1
20260506233023 70 233 0.0 1.7 0.00 0.08 0.08 81 1007.1
20260506232033 70 174 0.0 5.2 0.00 0.08 0.08 80 1007.1
20260506231029 70 184 0.9 2.6 0.00 0.08 0.08 80 1007.1
20260506230105 70 164 0.9 3.5 0.00 0.08 0.08 79 1006.9
20260506225047 70 278 0.9 5.2 0.00 0.08 0.08 79 1007.0
20260506224029 71 261 3.5 6.1 0.00 0.08 0.08 79 1007.0
20260506223104 71 198 4.3 9.6 0.00 0.08 0.08 78 1006.9
20260506222023 71 292 2.6 9.6 0.00 0.08 0.08 78 1006.8
20260506221033 71 248 4.3 10.4 0.00 0.08 0.08 79 1006.7
20260506220021 71 246 3.5 10.4 0.00 0.08 0.08 79 1007.0
20260506215034 71 284 3.5 7.8 0.00 0.08 0.08 79 1007.0
20260506214025 70 233 0.9 8.7 0.00 0.08 0.08 80 1006.9
20260506213034 70 208 3.5 10.4 0.00 0.08 0.08 79 1007.0
20260506212024 70 177 2.6 13.0 0.00 0.08 0.08 80 1007.0
20260506211034 70 220 3.5 9.6 0.00 0.08 0.08 80 1007.1
20260506210044 70 211 3.5 10.4 0.00 0.08 0.08 80 1007.2
20260506205034 69 196 4.3 10.4 0.00 0.08 0.08 80 1006.9
20260506204045 69 229 2.6 9.6 0.00 0.08 0.08 80 1007.0
20260506203018 69 217 4.3 8.7 0.00 0.08 0.08 81 1007.1
20260506202045 68 197 3.5 7.8 0.00 0.08 0.08 81 1006.9
20260506201031 68 173 1.7 9.6 0.00 0.08 0.08 82 1007.1
20260506200019 68 150 0.9 7.8 0.00 0.08 0.08 83 1007.1
20260506195047 68 219 0.9 7.0 0.00 0.08 0.08 83 1007.2
20260506194019 68 219 0.0 5.2 0.00 0.08 0.08 83 1007.6
20260506193048 68 245 4.3 7.8 0.00 0.08 0.08 82 1007.8
20260506192056 68 250 4.3 7.8 0.00 0.08 0.08 82 1008.0
20260506191023 68 252 3.5 9.6 0.00 0.08 0.08 82 1007.9
20260506190034 68 257 3.5 14.8 0.00 0.08 0.08 82 1007.9
20260506185020 68 256 3.5 6.1 0.00 0.08 0.08 82 1008.2
20260506184030 68 269 4.3 8.7 0.00 0.08 0.08 83 1008.4
20260506183038 68 258 2.6 9.6 0.00 0.08 0.08 82 1008.5
20260506182028 68 259 4.3 9.6 0.00 0.08 0.08 82 1008.7
20260506181036 68 175 5.2 10.4 0.00 0.08 0.08 82 1008.6
20260506180044 67 256 3.5 8.7 0.00 0.08 0.08 83 1008.4
20260506175049 67 213 3.5 10.4 0.00 0.08 0.08 84 1008.7
20260506174058 66 221 3.5 8.7 0.00 0.08 0.08 85 1008.7
20260506173028 66 163 0.9 7.0 0.00 0.08 0.08 85 1008.8
20260506172034 66 189 1.7 6.1 0.00 0.08 0.08 86 1008.8
20260506171023 65 164 0.0 7.8 0.00 0.08 0.08 87 1008.8
20260506170034 65 242 1.7 8.7 0.01 0.08 0.08 87 1009.0
20260506165044 64 235 2.6 9.6 0.02 0.08 0.08 87 1009.0
20260506164030 64 219 7.0 10.4 0.02 0.08 0.08 88 1009.5
20260506163038 63 229 4.3 12.2 0.03 0.08 0.08 89 1009.3
20260506162025 63 187 0.9 5.2 0.05 0.08 0.08 90 1009.1
20260506161056 63 149 1.7 7.8 0.06 0.08 0.08 90 1009.2
20260506160023 63 219 1.7 6.1 0.06 0.07 0.07 89 1009.6
20260506155029 63 138 3.5 7.0 0.06 0.07 0.07 89 1009.6
20260506154019 63 229 1.7 5.2 0.05 0.06 0.06 88 1009.8
20260506153059 63 155 0.9 9.6 0.04 0.05 0.05 87 1009.8
20260506152039 64 226 3.5 7.8 0.02 0.03 0.03 85 1010.0
20260506151024 64 243 2.6 9.6 0.01 0.02 0.02 84 1010.1
20260506150033 65 200 3.5 6.1 0.00 0.01 0.01 83 1010.1
20260506145021 65 226 1.7 7.8 0.01 0.01 0.01 83 1010.2
20260506144028 65 148 1.7 5.2 0.01 0.01 0.01 84 1010.1
20260506143036 64 210 1.7 4.3 0.01 0.01 0.01 84 1009.9
20260506142022 64 208 0.9 4.3 0.01 0.01 0.01 83 1009.9
20260506141033 64 244 2.6 4.3 0.01 0.01 0.01 83 1010.0
20260506140024 65 203 0.0 3.5 0.01 0.01 0.01 81 1010.1
20260506135031 65 254 2.6 7.8 0.00 0.00 0.00 80 1010.2
20260506134018 66 219 0.9 4.3 0.00 0.00 0.00 78 1009.9
20260506133034 66 212 0.9 5.2 0.00 0.00 0.00 77 1010.2
20260506132040 67 275 0.9 9.6 0.00 0.00 0.00 75 1010.0
20260506131021 67 147 0.9 7.0 0.00 0.00 0.00 75 1010.0
20260506130030 67 155 3.5 6.1 0.00 0.00 0.00 74 1009.7
20260506125041 67 163 2.6 9.6 0.00 0.00 0.00 74 1009.8
20260506124026 67 94 2.6 7.8 0.00 0.00 0.00 73 1009.8
20260506123033 67 263 0.9 7.8 0.00 0.00 0.00 74 1009.8
20260506122021 67 153 0.9 7.8 0.00 0.00 0.00 74 1009.8
20260506121032 67 148 1.7 6.1 0.00 0.00 0.00 74 1010.1
20260506120042 66 216 2.6 7.8 0.00 0.00 0.00 74 1010.1
20260506115027 66 192 3.5 7.8 0.00 0.00 0.00 74 1010.1
20260506114056 66 46 1.7 6.1 0.00 0.00 0.00 75 1010.1
20260506113022 66 217 0.0 5.2 0.00 0.00 0.00 75 1010.0
20260506112037 66 165 2.6 5.2 0.00 0.00 0.00 75 1009.9
20260506111024 65 229 3.5 7.8 0.00 0.00 0.00 75 1010.0
20260506110052 65 110 2.6 7.8 0.00 0.00 0.00 76 1009.8
20260506105037 64 130 0.9 4.3 0.00 0.00 0.00 77 1009.8
20260506104027 64 192 0.9 4.3 0.00 0.00 0.00 77 1009.9
20260506103018 64 182 1.7 8.7 0.00 0.00 0.00 77 1009.7
20260506102027 64 205 0.9 3.5 0.00 0.00 0.00 78 1009.6
20260506101048 64 169 0.9 5.2 0.00 0.00 0.00 78 1009.5
20260506100037 64 225 2.6 6.1 0.00 0.00 0.00 78 1009.6
20260506095044 64 209 0.9 4.3 0.00 0.00 0.00 79 1009.6
20260506094029 64 173 0.9 4.3 0.00 0.00 0.00 79 1009.7
20260506093017 64 225 2.6 6.1 0.00 0.00 0.00 79 1009.6
20260506092031 64 252 1.7 5.2 0.00 0.00 0.00 79 1009.7
20260506091019 65 130 1.7 7.0 0.00 0.00 0.00 78 1009.8
20260506090048 65 267 1.7 7.8 0.00 0.00 0.00 78 1009.8
20260506085030 65 194 1.7 8.7 0.00 0.00 0.00 78 1009.8
20260506084036 65 115 4.3 11.3 0.00 0.00 0.00 78 1009.9
20260506083028 65 218 3.5 6.1 0.00 0.00 0.00 78 1009.8
20260506082057 65 164 0.9 6.1 0.00 0.00 0.00 78 1009.8